Volver al catálogo

STARLINK-36661

ActivoComunicacionesVLEO
NORAD 67831·PAYLOAD·🇺🇸 United States

Lanzado Feb 16, 2026 desde Vandenberg Space Force Base

Loading…

Próximos Pases (próximas 24 horas)

TLE

ActualizadoSource: CelesTrak SupGP

Época: Sep 15, 2026, 03:43 UTC

1 67831C 26033L   26258.15534722 -.00026548  00000+0 -96146-3 0  2584
2 67831  42.9998 277.4805 0001407 265.5690 161.3712 15.27595102    15

Sigue STARLINK-36661 en tiempo real con AllMySat

Download on the App Store